COSMOS 1989 (ETALON 1)

Last updated on Wed May 14 2025 00:03:29 GMT+0000 (Coordinated Universal Time)

1 19751U 89001C 25133.07733088 -.00000006 00000+0 00000+0 0 9996 2 19751 64.7184 85.9026 0023552 216.9533 159.9649 2.13156152282844
UTC large
Height (km)
Speed (km/s)
/
Latitude / Longitude
Inclination (degrees)
Orbital Period (minutes)
Azimuth
Elevation
Range (km)
Doppler Factor

Next 0 passes for location: London (51.5072 / 0.1276)

Sorry there are no passes over London.